Weather History for Keene, NH

Change the Weather History Date:

Thursday, January 17, 2013

  Actual Average Record
Temperature  
Mean Temperature 30 °F -  
Max Temperature 37 °F 30 °F 58 °F (1995)
Min Temperature 23 °F 5 °F -25 °F (1971)
Degree Days  
Heating Degree Days 35    
Moisture  
Dew Point 20 °F    
Average Humidity 71    
Maximum Humidity 93    
Minimum Humidity 40    
Precipitation  
Precipitation 0.00 in - - ()
Sea Level Pressure  
Sea Level Pressure 29.96 in    
Wind  
Wind Speed 5 mph (WSW)    
Max Wind Speed 14 mph    
Max Gust Speed 18 mph    
Visibility 10 miles    
Events      
Averages and records for this station are not official NWS values.
T = Trace of Precipitation, MM = Missing Value Source: NWS Daily Summary

Daily Weather History Graph

Daily Weather History Graph

Search for Another Location

Airport:

Trip Planner

Search our weather history database for the weather conditions in past years. The results will help you decide how hot, cold, wet, or windy it might be!

Date:

Astronomy

Jan. 17, 2013 Rise Set
Actual Time 7:16 AM EST 4:42 PM EST
Civil Twilight 6:44 AM EST 5:14 PM EST
Nautical Twilight 6:10 AM EST 5:48 PM EST
Astronomical Twilight 5:36 AM EST 6:22 PM EST
Moon 10:10 AM EST (1/17) 11:43 PM EST (1/17)
Length of Visible Light 10h 29m
Length of Day
9h 26m
Waxing Crescent, 37% of the Moon is Illuminated
Jan 17
Waxing Crescent
Jan 18
First Quarter
Jan 26
Full
Feb 3
Last Quarter
Feb 10
New

Hourly Weather History & Observations

Time (EST) Temp. Windchill Dew Point Humidity Pressure Visibility Wind Dir Wind Speed Gust Speed Precip Events Conditions
12:15 AM 30.2 °F 23.4 °F 26.6 °F 86% 29.83 in 10.0 mi WSW 6.9 mph - N/A   Overcast
12:55 AM 30.2 °F 26.7 °F 28.4 °F 93% 29.83 in 10.0 mi South 3.5 mph - N/A   Overcast
1:15 AM 30.2 °F - 26.6 °F 86% 29.83 in 10.0 mi Calm Calm - N/A   Overcast
1:35 AM 28.4 °F 24.6 °F 26.6 °F 93% 29.85 in 10.0 mi South 3.5 mph - N/A   Overcast
1:55 AM 28.4 °F 23.3 °F 26.6 °F 93% 29.85 in 10.0 mi South 4.6 mph - N/A   Mostly Cloudy
2:15 AM 28.4 °F 23.3 °F 24.8 °F 86% 29.85 in 10.0 mi South 4.6 mph - N/A   Clear
2:35 AM 24.8 °F - 23.0 °F 93% 29.85 in 3.0 mi Calm Calm - N/A   Clear
3:15 AM 23.0 °F 18.4 °F 19.4 °F 86% 29.84 in 9.0 mi South 3.5 mph - N/A   Clear
3:35 AM 24.8 °F 19.1 °F 21.2 °F 86% 29.83 in 10.0 mi South 4.6 mph - N/A   Mostly Cloudy
3:55 AM 24.8 °F 19.1 °F 21.2 °F 86% 29.83 in 10.0 mi South 4.6 mph - N/A   Overcast
4:35 AM 24.8 °F 19.1 °F 21.2 °F 86% 29.84 in 10.0 mi South 4.6 mph - N/A   Clear
4:55 AM 24.8 °F 20.5 °F 23.0 °F 93% 29.85 in 10.0 mi South 3.5 mph - N/A   Scattered Clouds
5:35 AM 24.8 °F 19.1 °F 21.2 °F 86% 29.85 in 10.0 mi SSW 4.6 mph - N/A   Overcast
5:55 AM 24.8 °F 17.9 °F 21.2 °F 86% 29.85 in 10.0 mi SSW 5.8 mph - N/A   Overcast
6:15 AM 26.6 °F - 23.0 °F 86% 29.86 in 10.0 mi Calm Calm - N/A   Overcast
6:35 AM 26.6 °F 22.6 °F 23.0 °F 86% 29.87 in 10.0 mi SW 3.5 mph - N/A   Overcast
6:55 AM 26.6 °F - 24.8 °F 93% 29.89 in 10.0 mi Calm Calm - N/A   Overcast
7:15 AM 28.4 °F 23.3 °F 24.8 °F 86% 29.89 in 10.0 mi South 4.6 mph - N/A   Overcast
7:35 AM 26.6 °F 22.6 °F 24.8 °F 93% 29.90 in 10.0 mi South 3.5 mph - N/A   Mostly Cloudy
7:55 AM 24.8 °F 17.9 °F 21.2 °F 86% 29.90 in 10.0 mi SSW 5.8 mph - N/A   Mostly Cloudy
8:15 AM 26.6 °F 22.6 °F 24.8 °F 93% 29.92 in 10.0 mi SSW 3.5 mph - N/A   Mostly Cloudy
8:35 AM 28.4 °F 24.6 °F 23.0 °F 80% 29.92 in 10.0 mi SSW 3.5 mph - N/A   Overcast
9:15 AM 32.0 °F 27.5 °F 24.8 °F 75% 29.93 in 10.0 mi South 4.6 mph - N/A   Partly Cloudy
9:35 AM 32.0 °F 26.4 °F 26.6 °F 80% 29.94 in 10.0 mi South 5.8 mph - N/A   Partly Cloudy
9:55 AM 32.0 °F 27.5 °F 28.4 °F 87% 29.93 in 10.0 mi South 4.6 mph - N/A   Mostly Cloudy
10:35 AM 33.8 °F 27.7 °F 28.4 °F 81% 29.95 in 10.0 mi South 6.9 mph - N/A   Overcast
10:55 AM 33.8 °F 28.6 °F 28.4 °F 81% 29.95 in 10.0 mi SSW 5.8 mph - N/A   Overcast
11:15 AM 33.8 °F 28.6 °F 28.4 °F 81% 29.95 in 10.0 mi SSW 5.8 mph - N/A   Overcast
11:35 AM 33.8 °F - 30.2 °F 87% 29.96 in 10.0 mi Calm Calm - N/A   Overcast
12:15 PM 35.6 °F 30.7 °F 28.4 °F 75% 29.95 in 10.0 mi SW 5.8 mph - N/A   Mostly Cloudy
12:35 PM 35.6 °F 31.7 °F 28.4 °F 75% 29.96 in 10.0 mi West 4.6 mph - N/A   Mostly Cloudy
12:55 PM 35.6 °F 31.7 °F 28.4 °F 75% 29.96 in 10.0 mi SW 4.6 mph - N/A   Scattered Clouds
1:35 PM 37.4 °F 29.8 °F 28.4 °F 70% 29.97 in 10.0 mi NW 11.5 mph 17.3 mph N/A   Mostly Cloudy
1:55 PM 35.6 °F 26.6 °F 28.4 °F 75% 29.99 in 9.0 mi North 13.8 mph - N/A   Mostly Cloudy
2:15 PM 35.6 °F 29.2 °F 26.6 °F 70% 29.99 in 10.0 mi North 8.1 mph 16.1 mph N/A   Scattered Clouds
2:35 PM 35.6 °F 28.0 °F 26.6 °F 70% 29.99 in 10.0 mi North 10.4 mph - N/A   Mostly Cloudy
2:55 PM 35.6 °F 31.7 °F 24.8 °F 65% 30.00 in 10.0 mi NW 4.6 mph - N/A   Overcast
3:15 PM 35.6 °F 28.6 °F 21.2 °F 56% 30.02 in 10.0 mi NW 9.2 mph - N/A   Scattered Clouds
3:55 PM 33.8 °F 24.3 °F 17.6 °F 52% 30.03 in 10.0 mi WNW 13.8 mph 18.4 mph N/A   Clear
4:15 PM 33.8 °F 27.0 °F 19.4 °F 56% 30.02 in 10.0 mi NW 8.1 mph - N/A   Clear
4:35 PM 32.0 °F 24.8 °F 19.4 °F 60% 30.03 in 10.0 mi North 8.1 mph - N/A   Clear
4:55 PM 30.2 °F 20.8 °F 17.6 °F 60% 30.05 in 10.0 mi North 11.5 mph - N/A   Partly Cloudy
5:15 PM 30.2 °F 24.3 °F 15.8 °F 55% 30.06 in 10.0 mi NNW 5.8 mph - N/A   Scattered Clouds
5:35 PM 30.2 °F 24.3 °F 15.8 °F 55% 30.06 in 10.0 mi WNW 5.8 mph - N/A   Partly Cloudy
5:55 PM 30.2 °F 23.4 °F 15.8 °F 55% 30.07 in 10.0 mi NNW 6.9 mph - N/A   Clear
6:15 PM 28.4 °F 19.7 °F 14.0 °F 55% 30.07 in 10.0 mi NNW 9.2 mph - N/A   Clear
6:35 PM 28.4 °F 22.2 °F 12.2 °F 51% 30.09 in 10.0 mi NNW 5.8 mph - N/A   Clear
6:55 PM 28.4 °F 23.3 °F 12.2 °F 51% 30.09 in 10.0 mi NNW 4.6 mph - N/A   Clear
7:15 PM 28.4 °F 24.6 °F 14.0 °F 55% 30.10 in 10.0 mi NE 3.5 mph - N/A   Clear
8:35 PM 26.6 °F 19.1 °F 8.6 °F 47% 30.10 in 10.0 mi WNW 6.9 mph - N/A   Clear
8:55 PM 26.6 °F 22.6 °F 8.6 °F 47% 30.09 in 10.0 mi WNW 3.5 mph - N/A   Clear
9:15 PM 26.6 °F 21.2 °F 8.6 °F 47% 30.10 in 10.0 mi West 4.6 mph - N/A   Scattered Clouds
9:55 PM 26.6 °F 21.2 °F 8.6 °F 47% 30.08 in 10.0 mi West 4.6 mph - N/A   Partly Cloudy
10:15 PM 24.8 °F 16.9 °F 8.6 °F 50% 30.07 in 10.0 mi North 6.9 mph - N/A   Clear
10:35 PM 24.8 °F 16.9 °F 6.8 °F 46% 30.07 in 10.0 mi North 6.9 mph - N/A   Clear
10:55 PM 24.8 °F 17.9 °F 6.8 °F 46% 30.07 in 10.0 mi North 5.8 mph - N/A   Scattered Clouds
11:15 PM 24.8 °F 19.1 °F 6.8 °F 46% 30.05 in 10.0 mi North 4.6 mph - N/A   Mostly Cloudy
11:35 PM 24.8 °F - 3.2 °F 40% 30.05 in 10.0 mi Calm Calm - N/A   Overcast
11:55 PM 24.8 °F 16.9 °F 6.8 °F 46% 30.05 in 10.0 mi North 6.9 mph - N/A   Overcast